Location: Dob?e?
(49.9411°N, 15.1496°E)
Time: 04:26:58
(UTC+00:00)

STARLINK-1311 - Pass Details

Date: 07 June 2020
Orbit: 337 x 342 km, 53.0° (Epoch: 10 July)

Event Time Altitude Azimuth Distance (km) Brightness Sun altitude
Rises 02:01:49 0° 274° (W) 2,137 6.3 -6.7°
Reaches altitude 10° 02:03:52 10° 281° (WNW) 1,302 5.2 -6.5°
Maximum altitude 02:06:40 43° 356° (N) 500 3.8 -6.2°
Drops below altitude 10° 02:09:30 10° 70° (ENE) 1,320 6.7 -5.9°
Sets 02:11:35 0° 78° (ENE) 2,171 7.7 -5.6°
